Regional Weather Roundup
Issued by NWS

Home | Current Version | Previous Version | Text Only | Print | Product List | Glossary Off
Versions: 1 2 3 4 5 6 7 8 9 10 11 12 13 14 15 16 17 18 19 20 21 22 23 24 25 26 27 28 29 30 31 32 33 34 35 36 37 38 39 40 41 42 43 44 45 46 47 48 49 50

008
ASUS43 KLSX 172057
RWRMO

WEATHER SUMMARY FOR MISSOURI
NATIONAL WEATHER SERVICE SPRINGFIELD MO
300 PM CST SAT FEB 17 2018

NOTE: "FAIR" INDICATES FEW OR NO CLOUDS BELOW 12,000 FEET WITH NO
       SIGNIFICANT WEATHER AND/OR OBSTRUCTIONS TO VISIBILITY.
       CURRENT SKY AND/OR WEATHER CONDITIONS ARE NOT AVAILABLE FOR
       CHILLICOTHE AND FARMINGTON.

MOZ001>031-035>038-043-044-053-054-172200-
...NORTHERN AND WESTERN MISSOURI...

CITY           SKY/WX    TMP DP  RH WIND       PRES   REMARKS
KANSAS CTY INT MOSUNNY   53  20  27 NW14      30.10R
LEE`S SUMMIT   SUNNY     53  23  31 NW21      30.09R
ST JOSEPH      SUNNY     51  23  33 NW15      30.09R
CHILLICOTHE      N/A     51  22  31 NW12G25   30.06R

$$
MOZ066>068-077>081-088>096-101>105-172200-
...SOUTHWEST MISSOURI...

CITY           SKY/WX    TMP DP  RH WIND       PRES   REMARKS
SPRINGFIELD    PTSUNNY   45  38  76 NW9       30.09R
JOPLIN         SUNNY     51  39  63 NW10      30.12R
BRANSON        CLOUDY    45  41  87 NW9       30.11R

$$
MOZ032>034-039>042-045>050-055>058-069>072-172200-
...CENTRAL MISSOURI...

CITY           SKY/WX    TMP DP  RH WIND       PRES   REMARKS
COLUMBIA       NOT AVBL
JEFFERSON CITY MOSUNNY   48  38  68 W14G23    30.07R
ROLLA          CLOUDY    42  39  89 W13G23    30.06R
SEDALIA        SUNNY     51  38  60 NW14      30.08R
WARRENSBURG    SUNNY     52  30  43 W13G20    30.08R
OSAGE BEACH    MOSUNNY   46  37  71 NW10      30.09R

$$
MOZ051-052-059>065-172200-
...EAST CENTRAL MISSOURI...

CITY           SKY/WX    TMP DP  RH WIND       PRES   REMARKS
ST LOUIS INTL  CLOUDY    41  39  93 W17G23    30.03R

$$
MOZ072>076-082>087-097>100-106>115-172200-
...SOUTH CENTRAL AND SOUTHEAST MISSOURI...

CITY           SKY/WX    TMP DP  RH WIND       PRES   REMARKS
CAPE GIRARDEAU CLOUDY    41  38  89 SW8       30.07R
POPLAR BLUFF   CLOUDY    44  41  89 SW8       30.08R
WEST PLAINS    CLOUDY    43  40  89 W12G22    30.09R

$$



USA.gov is the U.S. government's official web portal to all federal, state and local government web resources and services.